EW3182 Weather Reports


Display with metric or nautical units.
time (UTC)temp
F
wind
direction
speed
MPH
gust
MPH
rain 1hr
in
rain 24hr
in
rain mn
in
humidity
%
barometer
mb
20260902211501 100 119 0.0 3.0 0.00 0.00 0.00 38 1009.9
20260902204559 101 90 0.0 3.0 0.00 0.00 0.00 38 1010.1
20260902203104 101 129 0.0 4.0 0.00 0.00 0.00 38 1010.4
20260902201553 100 74 0.0 5.0 0.00 0.00 0.00 39 1010.5
20260902200051 100 127 1.0 5.0 0.00 0.00 0.00 40 1010.8
20260902194548 100 118 0.0 5.0 0.00 0.00 0.00 39 1011.0
20260902193055 100 91 0.0 1.0 0.00 0.00 0.00 41 1011.3
20260902191548 100 77 0.0 1.0 0.00 0.00 0.00 41 1011.6
20260902190039 98 134 1.0 4.0 0.00 0.00 0.00 43 1011.8
20260902184536 97 160 1.0 9.0 0.00 0.00 0.00 41 1012.0
20260902183033 98 91 0.0 4.0 0.00 0.00 0.00 42 1012.1
20260902181530 98 91 0.0 4.0 0.00 0.00 0.00 44 1012.6
20260902180025 97 96 0.0 2.0 0.00 0.00 0.00 44 1012.9
20260902174522 96 156 1.0 4.0 0.00 0.00 0.00 44 1013.1
20260902173020 95 278 0.0 3.0 0.00 0.00 0.00 47 1013.4
20260902171519 95 191 0.0 4.0 0.00 0.00 0.00 46 1013.6
20260902170017 94 97 0.0 3.0 0.00 0.00 0.00 48 1013.8
20260902164513 94 136 0.0 1.0 0.00 0.00 0.00 49 1013.9
20260902163009 92 302 0.0 2.0 0.00 0.00 0.00 51 1014.1
20260902161508 92 105 0.0 3.0 0.00 0.00 0.00 52 1014.2
20260902160008 91 129 0.0 3.0 0.00 0.00 0.00 53 1014.3
20260902154501 89 264 0.0 2.0 0.00 0.00 0.00 56 1014.3
20260902153059 89 170 0.0 2.0 0.00 0.00 0.00 57 1014.2
20260902151559 89 108 0.0 2.0 0.00 0.00 0.00 58 1014.1
20260902150057 88 288 0.0 0.0 0.00 0.00 0.00 59 1014.2
20260902144555 86 113 0.0 1.0 0.00 0.00 0.00 62 1014.2
20260902143056 86 252 0.0 1.0 0.00 0.00 0.00 64 1014.3
20260902141554 85 255 0.0 3.0 0.00 0.00 0.00 65 1014.2
20260902140054 85 201 0.0 2.0 0.00 0.00 0.00 65 1014.2
20260902134556 85 117 0.0 1.0 0.00 0.00 0.00 65 1014.2
20260902133052 84 167 0.0 1.0 0.00 0.00 0.00 68 1014.2
20260902131550 83 248 0.0 1.0 0.00 0.00 0.00 68 1014.1
20260902130048 81 251 0.0 0.0 0.00 0.00 0.00 73 1013.9
20260902124546 78 252 0.0 0.0 0.00 0.00 0.00 77 1013.8
20260902123041 0 0.0 0.0 0.00 0.00 0.00 1013.6
20260902121539 0 0.0 0.0 0.00 0.00 0.00 1013.4
20260902120034 0 0.0 0.0 0.00 0.00 0.00 1013.4
20260902114601 0 0.0 0.0 0.00 0.00 0.00 1013.4
20260902113025 0 0.0 0.0 0.00 0.00 0.00 1013.3
20260902111523 0 0.0 0.0 0.00 0.00 0.00 1013.4
20260902110020 0 0.0 0.0 0.00 0.00 0.00 1013.6
20260902104513 0 0.0 0.0 0.00 0.00 0.00 1013.4
20260902103010 0 0.0 0.0 0.00 0.00 0.00 1013.4
20260902101503 0 0.0 0.0 0.00 0.00 0.00 1013.3
20260902100125 0 0.0 0.0 0.00 0.00 0.00 1013.3
20260902094614 0 0.0 0.0 0.00 0.00 0.00 1013.3
20260902093109 0 0.0 0.0 0.00 0.00 0.00 1013.3
20260902091546 0 0.0 0.0 0.00 0.00 0.00 1013.2
20260902090042 0 0.0 0.0 0.00 0.00 0.00 1013.4
20260902084541 81 274 0.0 1.0 0.00 0.00 0.00 66 1013.3
20260902083039 82 269 0.0 0.0 0.00 0.00 0.00 66 1013.2
20260902081532 83 270 0.0 2.0 0.00 0.00 0.00 64 1013.3
20260902080132 83 100 0.0 2.0 0.00 0.00 0.00 63 1013.3
20260902074537 84 262 0.0 3.0 0.00 0.00 0.00 63 1013.3
20260902073027 84 236 0.0 3.0 0.00 0.00 0.00 63 1013.4
20260902071527 84 262 0.0 1.0 0.00 0.00 0.00 63 1013.3
20260902070025 84 231 0.0 5.0 0.00 0.00 0.00 63 1013.5
20260902064525 85 119 0.0 3.0 0.00 0.00 0.00 62 1013.4
20260902063022 85 239 0.0 2.0 0.00 0.00 0.00 62 1013.2
20260902061522 85 248 0.0 2.0 0.00 0.00 0.00 62 1013.3
20260902060018 85 108 0.0 8.0 0.00 0.00 0.00 61 1013.1
20260902054520 86 99 0.0 3.0 0.00 0.00 0.00 60 1012.8
20260902053012 86 229 0.0 3.0 0.00 0.00 0.00 59 1012.9
20260902051512 87 200 0.0 4.0 0.00 0.00 0.00 57 1012.8
20260902050008 87 290 1.0 6.0 0.00 0.00 0.00 56 1012.8
20260902044507 88 222 1.0 5.0 0.00 0.00 0.00 55 1012.8
20260902043011 86 148 0.0 3.0 0.00 0.00 0.00 59 1012.7
20260902041505 86 117 0.0 0.0 0.00 0.00 0.00 57 1012.3
20260902040005 87 117 0.0 0.0 0.00 0.00 0.00 56 1012.4
20260902034504 88 117 0.0 1.0 0.00 0.00 0.00 56 1012.5
20260902033003 88 57 0.0 0.0 0.00 0.00 0.00 55 1012.5
20260902031503 87 50 0.0 0.0 0.00 0.00 0.00 56 1012.3
20260902030002 87 50 0.0 0.0 0.00 0.00 0.00 57 1012.1
20260902024500 88 52 0.0 0.0 0.00 0.00 0.00 56 1011.9
20260902023106 89 52 0.0 0.0 0.00 0.00 0.00 54 1011.5
20260902021605 90 48 0.0 0.0 0.00 0.00 0.00 51 1011.4
20260902020106 91 48 0.0 1.0 0.00 0.00 0.00 50 1011.3
20260902014559 91 134 0.0 1.0 0.00 0.00 0.00 48 1011.1
20260902013058 92 174 0.0 1.0 0.00 0.00 0.00 47 1011.0
20260902011607 92 150 0.0 3.0 0.00 0.00 0.00 47 1010.8
20260902010058 93 220 0.0 1.0 0.00 0.00 0.00 46 1010.8
20260902004557 93 96 0.0 1.0 0.00 0.00 0.00 45 1010.8
20260902003055 94 131 0.0 2.0 0.00 0.00 0.00 44 1010.8
20260902001605 94 172 0.0 5.0 0.00 0.00 0.00 42 1010.9
20260902000054 95 105 0.0 3.0 0.00 0.00 0.00 42 1011.0
20260901234603 96 80 0.0 4.0 0.00 0.00 0.00 42 1011.1
20260901233103 96 91 0.0 3.0 0.00 0.00 0.00 42 1011.1
20260901231551 97 100 1.0 5.0 0.00 0.00 0.00 41 1011.1
20260901230050 97 70 0.0 3.0 0.00 0.00 0.00 40 1011.1
20260901224553 97 91 0.0 3.0 0.00 0.00 0.00 39 1011.1
20260901223049 97 112 0.0 4.0 0.00 0.00 0.00 39 1011.2
20260901221548 98 276 0.0 5.0 0.00 0.00 0.00 39 1011.2
20260901220047 99 183 0.0 3.0 0.00 0.00 0.00 37 1011.2
20260901214557 100 297 0.0 3.0 0.00 0.00 0.00 37 1011.4
20260901213108 100 74 0.0 4.0 0.00 0.00 0.00 36 1011.4